1507154400.36,30110,12.63,73538.5,-1.77,-28.79,-29.01,0,*5C
1507154401.65,30111,12.63,73530.0,-1.77,-28.63,-29.01,0,*56
1507154402.9,30112,12.63,73526.8,-1.77,-28.69,-29.13,0,*5C
1507154404.16,30113,12.63,73522.8,-1.77,-28.97,-29.29,0,*55
1507154405.45,30114,12.63,73520.3,-1.77,-29.01,-29.35,0,*51
1507154406.71,30115,12.63,73524.0,-1.77,-28.85,-29.13,0,*59
1507154407.99,30116,12.63,73518.8,-1.77,-28.79,-29.01,0,*5A
1507154409.25,30117,12.63,73504.8,-1.77,-28.85,-29.13,0,*5B
1507154410.51,30118,12.63,73502.0,-1.77,-28.69,-29.13,0,*56
1507154411.77,30119,12.63,73496.8,-1.77,-28.79,-28.97,0,*5B
1507154413.05,30120,12.63,73502.0,-1.77,-28.79,-29.13,0,*5C
1507154414.33,30121,12.63,73502.0,-1.77,-28.79,-29.13,0,*5D
1507154415.56,30122,12.63,73506.3,-1.77,-28.69,-29.23,0,*5C
1507154416.85,30123,12.63,73500.0,-1.77,-28.79,-29.01,0,*5C
1507154418.1,30124,12.63,73502.5,-1.77,-28.97,-29.17,0,*5C
1507154419.37,30125,12.63,73514.8,-1.77,-28.85,-29.35,0,*5E
1507154420.67,30126,12.63,73516.0,-1.77,-29.01,-29.35,0,*50
1507154421.96,30127,12.63,73518.3,-1.77,-29.01,-29.35,0,*51
1507154423.25,30128,12.63,73524.3,-1.77,-29.01,-29.35,0,*5E
1507154424.51,30129,12.63,73522.3,-1.81,-28.91,-29.39,0,*52
1507154425.73,30130,12.63,73528.8,-1.81,-28.97,-29.29,0,*5D
1507154426.96,30131,12.63,73508.5,-1.81,-28.91,-29.23,0,*50
1507154428.22,30132,12.63,73510.3,-1.77,-28.85,-29.13,0,*5C
1507154429.48,30133,12.63,73518.0,-1.77,-28.85,-29.17,0,*59
1507154430.7,30134,12.63,73520.0,-1.81,-28.79,-29.23,0,*53
1507154431.95,30135,12.63,73524.5,-1.81,-28.79,-29.13,0,*51
1507154433.17,30136,12.63,73520.0,-1.81,-29.07,-29.29,0,*53
1507154434.37,30137,12.63,73522.0,-1.81,-29.07,-29.23,0,*58
1507154435.57,30138,12.63,73530.8,-1.81,-29.07,-29.23,0,*57
1507154436.8,30139,12.63,73534.3,-1.81,-29.07,-29.29,0,*5C
1507154438.02,30140,12.63,73534.8,-1.81,-28.97,-29.39,0,*5B
1507154439.28,30141,12.63,73520.0,-1.77,-28.85,-29.17,0,*5C
1507154440.51,30142,12.63,73528.0,-1.81,-29.07,-29.39,0,*51
1507154441.74,30143,12.63,73520.5,-1.81,-29.07,-29.39,0,*50
1507154442.95,30144,12.63,73512.8,-1.81,-28.97,-29.57,0,*57
1507154444.17,30145,12.63,73510.5,-1.81,-29.13,-29.45,0,*58
1507154445.45,30146,12.63,73516.0,-1.83,-29.13,-29.39,0,*52
1507154446.71,30147,12.63,73520.5,-1.83,-29.13,-29.45,0,*58
1507154447.97,30148,12.63,73520.5,-1.83,-29.17,-29.45,0,*53
1507154449.23,30149,12.63,73520.3,-1.83,-29.07,-29.39,0,*58
1507154450.49,30150,12.63,73522.5,-1.83,-29.07,-29.39,0,*50
1507154451.71,30151,12.63,73514.8,-1.85,-28.97,-29.29,0,*5E
1507154452.96,30152,12.63,73508.8,-1.83,-28.79,-29.23,0,*51
1507154454.22,30153,12.63,73524.5,-1.85,-29.13,-29.35,0,*5C
1507154455.48,30154,12.63,73518.5,-1.83,-29.13,-29.45,0,*5A
1507154456.71,30155,12.63,73524.0,-1.85,-29.17,-29.45,0,*59
1507154457.96,30156,12.63,73524.5,-1.85,-29.17,-29.51,0,*5F
1507154459.19,30157,12.63,73518.8,-1.85,-29.13,-29.45,0,*5F
1507154460.45,30158,12.63,73516.0,-1.85,-29.17,-29.51,0,*51
1507154461.7,30159,12.63,73516.8,-1.85,-29.29,-29.51,0,*5D
1507154462.96,30160,12.63,73524.3,-1.83,-29.13,-29.45,0,*5D
1507154464.22,30161,12.63,73520.0,-1.85,-29.17,-29.51,0,*5B
1507154465.47,30162,12.63,73516.5,-1.87,-29.17,-29.61,0,*59
1507154466.75,30163,12.63,73514.8,-1.87,-29.13,-29.51,0,*5F
1507154467.98,30164,12.63,73504.3,-1.85,-29.01,-29.45,0,*5C
1507154469.27,30165,12.63,73514.0,-1.87,-29.13,-29.51,0,*59
1507154470.52,30166,12.63,73510.0,-1.87,-29.13,-29.45,0,*5F
1507154471.77,30167,12.63,73518.0,-1.85,-29.13,-29.51,0,*59
1507154472.98,30168,12.63,73524.3,-1.89,-29.23,-29.57,0,*5F
1507154474.25,30169,12.63,73526.3,-1.89,-28.91,-29.51,0,*50
1507154475.5,30170,12.63,73532.0,-1.89,-29.01,-29.39,0,*5E
1507154476.76,30171,12.63,73520.8,-1.89,-29.01,-29.51,0,*51
1507154478.02,30172,12.63,73516.8,-1.87,-28.85,-29.35,0,*53
1507154479.27,30173,12.63,73514.0,-1.89,-29.01,-29.39,0,*5D
1507154480.5,30174,12.63,73524.8,-1.89,-29.07,-29.39,0,*5C
1507154481.76,30175,12.63,73528.3,-1.89,-28.91,-29.35,0,*5F
1507154483.02,30176,12.63,73526.0,-1.89,-29.01,-29.39,0,*58
1507154484.28,30177,12.63,73524.3,-1.89,-29.01,-29.35,0,*55
1507154485.53,30178,12.63,73516.8,-1.87,-28.63,-29.23,0,*56
1507154486.73,30179,12.63,73512.3,-1.89,-28.85,-29.23,0,*51
1507154487.96,30180,12.63,73522.0,-1.89,-28.69,-29.17,0,*52
1507154489.17,30181,12.63,73514.5,-1.89,-28.53,-28.85,0,*50
1507154490.42,30182,12.63,73502.0,-1.87,-28.53,-28.91,0,*58
1507154491.65,30183,12.63,73506.5,-1.89,-28.63,-29.07,0,*5A
1507154492.88,30184,12.63,73504.3,-1.89,-28.79,-29.23,0,*50
1507154494.1,30185,12.63,73496.5,-1.89,-28.79,-29.23,0,*51
1507154495.37,30186,12.63,73500.8,-1.87,-28.75,-29.17,0,*57
1507154496.6,30187,12.63,73502.5,-1.89,-28.79,-29.23,0,*53
1507154497.85,30188,12.63,73510.5,-1.89,-28.79,-29.01,0,*5C
1507154499.11,30189,12.63,73496.3,-1.89,-28.63,-29.01,0,*56
1507154500.35,30190,12.63,73496.5,-1.87,-28.43,-28.97,0,*5C
1507154501.58,30191,12.63,73502.3,-1.89,-28.69,-29.17,0,*52
1507154502.81,30192,12.63,73492.0,-1.87,-28.31,-28.85,0,*58
1507154504.06,30193,12.63,73508.0,-1.89,-28.47,-28.91,0,*53
1507154505.3,30194,12.63,73508.8,-1.89,-28.53,-28.91,0,*51
1507154506.57,30195,12.63,73518.3,-1.87,-28.59,-29.01,0,*5C
1507154507.82,30196,12.63,73508.8,-1.87,-28.63,-28.97,0,*58
1507154509.07,30197,12.63,73506.8,-1.85,-28.63,-29.13,0,*56
1507154510.33,30198,12.63,73506.8,-1.89,-28.79,-29.17,0,*5A
1507154511.6,30199,12.63,73516.0,-1.87,-28.75,-29.17,0,*59
1507154512.83,30200,12.63,73520.3,-1.89,-28.85,-29.35,0,*5B
1507154514.11,30201,12.63,73518.8,-1.87,-28.79,-29.29,0,*5A
1507154515.36,30202,12.63,73520.0,-1.89,-29.01,-29.39,0,*58
1507154516.63,30203,12.63,73520.0,-1.87,-28.79,-29.29,0,*58
1507154517.83,30204,12.63,73522.3,-1.89,-28.85,-29.23,0,*58
1507154519.06,30205,12.63,73520.3,-1.89,-28.79,-29.23,0,*5A
1507154520.28,30206,12.63,73522.5,-1.89,-28.75,-29.23,0,*55
1507154521.51,30207,12.63,73520.8,-1.89,-28.79,-29.23,0,*58
1507154522.78,30208,12.63,73536.0,-1.87,-28.75,-29.13,0,*56
1507154524.03,30209,12.63,73506.8,-1.89,-28.63,-29.17,0,*5A
1507154525.26,30210,12.63,73522.0,-1.89,-28.69,-29.17,0,*58
1507154526.46,30211,12.63,73490.5,-1.89,-28.85,-29.23,0,*5C
1507154527.73,30212,12.63,73512.8,-1.87,-28.63,-29.17,0,*5E
1507154529.01,30213,12.63,73516.3,-1.87,-28.63,-29.13,0,*5B
1507154530.28,30214,12.63,73526.3,-1.87,-28.63,-29.13,0,*5C
1507154531.52,30215,12.63,73520.5,-1.87,-28.59,-29.07,0,*51
1507154532.72,30216,12.63,73508.0,-1.89,-28.69,-29.07,0,*5F
1507154533.98,30217,12.63,73508.8,-1.89,-28.79,-29.17,0,*5E
1507154535.21,30218,12.63,73470.8,-1.89,-28.53,-28.91,0,*56
1507154536.46,30219,12.63,73456.0,-1.89,-27.83,-28.21,0,*5E
1507154537.74,30220,12.63,73468.3,-1.87,-27.83,-28.25,0,*5E
1507154538.99,30221,12.63,73462.5,-1.87,-27.71,-28.09,0,*5C
1507154540.25,30222,12.63,73514.0,-1.87,-27.93,-28.43,0,*5D
1507154541.47,30223,12.63,73504.5,-1.85,-28.31,-28.79,0,*50
1507154542.72,30224,12.63,73500.3,-1.85,-27.99,-28.47,0,*57
1507154543.95,30225,12.63,73516.8,-1.85,-28.15,-28.63,0,*5B
1507154545.18,30226,12.63,73512.3,-1.85,-27.93,-28.47,0,*5F
1507154546.41,30227,12.63,73508.8,-1.85,-28.15,-28.63,0,*59
1507154547.67,30228,12.63,73514.3,-1.83,-28.25,-28.69,0,*59
1507154548.89,30229,12.63,73512.8,-1.85,-28.47,-28.97,0,*5B
1507154550.13,30230,12.63,73516.3,-1.85,-28.47,-28.79,0,*53
1507154551.37,30231,12.63,73520.0,-1.83,-28.53,-28.97,0,*51
1507154552.62,30232,12.63,73510.3,-1.83,-28.69,-29.13,0,*56
1507154553.87,30233,12.63,73516.0,-1.85,-28.79,-29.29,0,*59
1507154555.12,30234,12.63,73524.3,-1.85,-28.79,-29.29,0,*5E
1507154556.34,30235,12.63,73526.0,-1.85,-28.59,-28.97,0,*59
1507154557.6,30236,12.63,73530.3,-1.85,-28.59,-29.01,0,*54
1507154558.85,30237,12.63,73516.8,-1.85,-28.63,-29.01,0,*5C
1507154560.08,30238,12.63,73500.0,-1.85,-28.43,-28.85,0,*5C
1507154561.33,30239,12.63,73510.0,-1.85,-28.63,-29.01,0,*52
1507154562.58,30240,12.63,73524.5,-1.85,-28.63,-29.13,0,*5F
1507154563.83,30241,12.63,73506.8,-1.85,-28.59,-29.13,0,*57
1507154565.09,30242,12.63,73484.8,-1.85,-28.25,-28.59,0,*50
1507154566.3,30243,12.63,73486.0,-1.85,-27.93,-28.31,0,*5D
1507154567.51,30244,12.63,73496.3,-1.85,-27.77,-28.31,0,*50
1507154568.77,30245,12.63,73494.5,-1.85,-28.09,-28.63,0,*50
1507154570.02,30246,12.63,73480.8,-1.83,-28.09,-28.53,0,*56
1507154571.26,30247,12.63,73480.0,-1.83,-27.93,-28.37,0,*59
1507154572.49,30248,12.63,73486.8,-1.83,-27.89,-28.37,0,*5D
1507154573.78,30249,12.63,73504.3,-1.83,-28.09,-28.59,0,*53
1507154575.07,30250,12.63,73498.8,-1.83,-28.05,-28.59,0,*57
1507154576.33,30251,12.63,73468.5,-1.83,-28.21,-28.69,0,*53
1507154577.61,30252,12.63,73472.5,-1.77,-28.09,-28.47,0,*5D
1507154578.86,30253,12.63,73460.8,-1.81,-28.43,-28.79,0,*56
1507154580.09,30254,12.63,73460.8,-1.81,-28.37,-28.79,0,*52
1507154581.33,30255,12.63,73466.3,-1.81,-28.59,-29.13,0,*56
1507154582.56,30256,12.63,73456.3,-1.81,-28.59,-29.07,0,*50
1507154583.82,30257,12.63,73462.5,-1.83,-28.59,-28.97,0,*5B
1507154585.07,30258,12.63,73470.5,-1.83,-28.59,-28.97,0,*54
1507154586.32,30259,12.63,73478.5,-1.83,-28.69,-29.13,0,*5B
1507154587.6,30260,12.69,73486.3,-1.83,-28.75,-29.29,0,*55
1507154588.83,30261,12.63,73500.5,-1.85,-28.85,-29.35,0,*50
1507154590.08,30262,12.63,73494.8,-1.83,-28.75,-29.23,0,*5D
1507154591.34,30263,12.63,73500.5,-1.83,-28.75,-29.23,0,*5C
1507154592.56,30264,12.63,73518.3,-1.83,-28.69,-29.23,0,*56
1507154593.79,30265,12.63,73518.3,-1.83,-28.69,-29.07,0,*51
1507154595.04,30266,12.63,73512.8,-1.85,-28.63,-29.17,0,*5F
1507154596.3,30267,12.63,73516.8,-1.83,-28.69,-29.13,0,*56
1507154597.54,30268,12.63,73514.8,-1.85,-28.79,-29.29,0,*57
1507154598.79,30269,12.63,73502.5,-1.83,-28.69,-29.13,0,*58
1507154600.02,30270,12.63,73490.0,-1.85,-28.59,-28.97,0,*58
1507154601.25,30271,12.63,73480.8,-1.85,-28.59,-28.85,0,*5A
1507154602.46,30272,12.63,73464.3,-1.85,-28.31,-28.85,0,*57
1507154603.68,30273,12.63,73476.5,-1.85,-28.31,-28.75,0,*59
1507154604.94,30274,12.63,73484.8,-1.83,-28.21,-28.53,0,*5D
1507154606.19,30275,12.63,73488.8,-1.85,-27.99,-28.47,0,*53
1507154607.45,30276,12.63,73502.3,-1.85,-27.99,-28.43,0,*54
1507154608.71,30277,12.63,73492.5,-1.83,-27.77,-28.21,0,*57
1507154609.94,30278,12.63,73472.0,-1.85,-27.71,-28.09,0,*52
1507154611.17,30279,12.63,73464.0,-1.81,-27.55,-28.05,0,*5D
1507154612.4,30280,12.63,73482.8,-1.81,-27.55,-28.05,0,*5B
1507154613.64,30281,12.63,73496.5,-1.81,-27.77,-28.25,0,*58
1507154614.9,30282,12.63,73502.0,-1.77,-27.45,-27.93,0,*51
1507154616.16,30283,12.63,73496.5,-1.77,-27.77,-28.25,0,*53
1507154617.45,30284,12.63,73486.3,-1.77,-27.83,-28.25,0,*5F
1507154618.69,30285,12.63,73484.8,-1.75,-27.83,-28.15,0,*5F
1507154619.95,30286,12.63,73510.5,-1.75,-27.83,-28.25,0,*5F
1507154621.2,30287,12.63,73522.5,-1.75,-27.99,-28.43,0,*55
1507154622.47,30288,12.63,73512.8,-1.75,-28.09,-28.63,0,*5E
1507154623.75,30289,12.63,73528.3,-1.77,-28.25,-28.79,0,*58
1507154625.01,30290,12.63,73534.5,-1.77,-28.31,-28.79,0,*55
1507154626.25,30291,12.63,73520.5,-1.75,-28.25,-28.69,0,*52
1507154627.48,30292,12.63,73528.8,-1.75,-28.47,-28.85,0,*57
1507154628.69,30293,12.63,73530.3,-1.75,-28.31,-28.85,0,*57
1507154629.96,30294,12.63,73532.5,-1.75,-28.43,-28.63,0,*5D
1507154631.18,30295,12.63,73514.5,-1.75,-28.31,-28.79,0,*52
1507154632.44,30296,12.63,73528.5,-1.75,-28.43,-28.79,0,*54
1507154633.67,30297,12.63,73528.5,-1.75,-28.47,-28.85,0,*52
1507154634.93,30298,12.63,73528.3,-1.77,-28.43,-28.85,0,*5B
1507154636.19,30299,12.63,73516.8,-1.77,-28.43,-28.85,0,*5A
1507154637.45,30300,12.69,73510.8,-1.77,-28.47,-28.97,0,*5C
1507154638.73,30301,12.63,73524.0,-1.77,-28.59,-29.13,0,*5F
1507154640.01,30302,12.63,73520.8,-1.77,-28.59,-29.13,0,*5C
1507154641.27,30303,12.63,73520.3,-1.77,-28.59,-28.97,0,*50
1507154642.55,30304,12.63,73524.0,-1.77,-28.63,-29.13,0,*53
1507154643.8,30305,12.63,73518.3,-1.77,-28.47,-28.97,0,*59
1507154645.06,30306,12.63,73516.0,-1.77,-28.47,-28.97,0,*5A
1507154646.31,30307,12.63,73520.5,-1.81,-28.59,-29.13,0,*50
1507154647.59,30308,12.63,73524.8,-1.77,-28.59,-29.01,0,*55
1507154648.79,30309,12.63,73526.5,-1.81,-28.69,-29.07,0,*58
1507154650.04,30310,12.63,73508.8,-1.81,-28.79,-29.13,0,*54
1507154651.29,30311,12.63,73510.0,-1.81,-28.91,-29.29,0,*5A
1507154652.52,30312,12.69,73516.3,-1.81,-28.91,-29.23,0,*53
1507154653.81,30313,12.63,73512.8,-1.77,-28.63,-29.01,0,*56
1507154655.03,30314,12.63,73516.3,-1.81,-28.75,-29.23,0,*5F
1507154656.25,30315,12.63,73520.3,-1.81,-28.97,-29.29,0,*58
1507154657.5,30316,12.63,73522.3,-1.81,-28.91,-29.29,0,*5D
1507154658.76,30317,12.63,73528.8,-1.81,-28.91,-29.39,0,*5D
1507154660.01,30318,12.63,73530.0,-1.81,-28.91,-29.29,0,*53
1507154661.25,30319,12.63,73522.8,-1.83,-28.97,-29.45,0,*5C
1507154662.48,30320,12.63,73516.0,-1.83,-28.97,-29.45,0,*56
1507154663.71,30321,12.69,73514.5,-1.83,-28.97,-29.45,0,*57
1507154664.97,30322,12.63,73508.8,-1.83,-29.07,-29.39,0,*57
1507154666.2,30323,12.69,73512.8,-1.85,-29.13,-29.45,0,*5E
1507154667.46,30324,12.63,73520.3,-1.83,-28.97,-29.39,0,*59
1507154668.69,30325,12.63,73522.3,-1.85,-29.01,-29.45,0,*5B
1507154669.92,30326,12.63,73524.3,-1.85,-29.01,-29.45,0,*58
1507154671.18,30327,12.63,73524.3,-1.85,-29.01,-29.51,0,*5C
1507154672.43,30328,12.63,73520.8,-1.85,-29.13,-29.51,0,*50
1507154673.67,30329,12.63,73522.8,-1.89,-29.13,-29.57,0,*5B
1507154674.92,30330,12.63,73520.3,-1.87,-29.13,-29.45,0,*5E
1507154676.17,30331,12.63,73522.5,-1.87,-29.01,-29.45,0,*5C
1507154677.43,30332,12.69,73528.8,-1.89,-29.17,-29.51,0,*53
1507154678.67,30333,12.69,73554.3,-1.89,-29.07,-29.51,0,*53
1507154679.9,30334,12.63,73552.0,-1.89,-29.07,-29.51,0,*54
1507154681.14,30335,12.63,73548.0,-1.89,-28.85,-29.35,0,*5C
1507154682.37,30336,12.63,73534.0,-1.89,-28.69,-29.01,0,*5A
1507154683.64,30337,12.63,73534.0,-1.87,-28.63,-29.01,0,*5F
1507154684.85,30338,12.63,73526.0,-1.89,-28.85,-29.23,0,*56
1507154686.05,30339,12.63,73536.8,-1.89,-28.85,-29.23,0,*57
1507154687.3,30340,12.63,73536.5,-1.89,-28.79,-29.17,0,*5D
1507154688.53,30341,12.63,73532.0,-1.89,-28.47,-28.69,0,*59
1507154689.79,30342,12.69,73524.3,-1.87,-28.47,-28.79,0,*55
1507154691.03,30343,12.63,73492.8,-1.89,-28.53,-28.91,0,*59
1507154692.3,30344,12.63,73484.8,-1.87,-28.79,-29.13,0,*53
1507154693.55,30345,12.69,73504.3,-1.89,-28.91,-29.17,0,*5E
1507154694.78,30346,12.63,73510.5,-1.89,-28.79,-29.07,0,*5A
1507154696.03,30347,12.63,73512.8,-1.87,-28.63,-28.97,0,*56
1507154697.3,30348,12.63,73514.8,-1.87,-28.59,-28.79,0,*50
1507154698.55,30349,12.63,73508.8,-1.89,-28.47,-28.79,0,*50
1507154699.78,30350,12.63,73508.5,-1.89,-28.53,-28.79,0,*5D
1507154701.06,30351,12.63,73520.5,-1.87,-28.43,-28.63,0,*58
1507154702.31,30352,12.63,73514.0,-1.89,-28.63,-28.91,0,*5A
1507154703.59,30353,12.63,73510.5,-1.87,-28.63,-29.01,0,*5D
1507154704.85,30354,12.63,73506.8,-1.89,-28.79,-29.01,0,*5F
1507154706.12,30355,12.63,73496.5,-1.87,-28.75,-29.17,0,*5B
1507154707.34,30356,12.63,73500.5,-1.89,-28.79,-29.07,0,*5B
1507154708.59,30357,12.63,73508.5,-1.87,-28.85,-29.13,0,*52
1507154709.86,30358,12.63,73532.8,-1.87,-28.79,-29.13,0,*5E
1507154711.14,30359,12.63,73552.5,-1.87,-28.79,-29.13,0,*5F
1507154712.38,30360,12.69,73550.3,-1.87,-28.97,-29.13,0,*55
1507154713.61,30361,12.63,73516.8,-1.89,-28.97,-29.17,0,*5E
1507154714.86,30362,12.63,73516.0,-1.89,-28.91,-29.17,0,*5B
1507154716.13,30363,12.63,73506.5,-1.87,-28.75,-28.79,0,*57
1507154717.37,30364,12.63,73500.5,-1.89,-28.79,-28.85,0,*51
1507154718.59,30365,12.63,73516.3,-1.89,-28.47,-28.69,0,*5F
1507154719.83,30366,12.63,73504.0,-1.89,-28.25,-28.31,0,*55
1507154721.06,30367,12.63,73500.8,-1.89,-28.37,-28.47,0,*56
1507154722.31,30368,12.63,73512.3,-1.87,-28.31,-28.47,0,*51
1507154723.58,30369,12.63,73520.0,-1.87,-28.43,-28.47,0,*55
1507154724.86,30370,12.63,73510.8,-1.87,-28.43,-28.59,0,*52
1507154726.13,30371,12.63,73516.0,-1.87,-28.63,-28.79,0,*53
1507154727.42,30372,12.69,73518.0,-1.87,-28.59,-28.63,0,*52
1507154728.7,30373,12.69,73498.3,-1.87,-28.25,-28.25,0,*5A
1507154729.95,30374,12.69,73496.3,-1.85,-28.43,-28.43,0,*5F
1507154731.21,30375,12.63,73498.5,-1.87,-28.43,-28.31,0,*59
1507154732.47,30376,12.63,73498.5,-1.85,-28.25,-28.43,0,*5D
1507154733.71,30377,12.63,73516.5,-1.85,-28.43,-28.47,0,*58
1507154734.95,30378,12.63,73500.3,-1.85,-27.93,-27.99,0,*59
1507154736.21,30379,12.63,73510.5,-1.83,-27.93,-28.05,0,*54
1507154737.44,30380,12.63,73506.5,-1.85,-28.31,-28.21,0,*55
1507154738.68,30381,12.63,73504.3,-1.83,-28.37,-28.37,0,*53
1507154739.97,30382,12.63,73512.8,-1.83,-28.25,-28.25,0,*50
1507154741.23,30383,12.63,73504.8,-1.83,-28.43,-28.37,0,*52
1507154742.46,30384,12.63,73508.5,-1.83,-28.37,-28.37,0,*56
1507154743.72,30385,12.69,73506.5,-1.83,-28.53,-28.43,0,*56
1507154744.93,30386,12.63,73492.3,-1.81,-28.53,-28.53,0,*56
1507154746.16,30387,12.69,73492.5,-1.81,-28.53,-28.43,0,*56
1507154747.45,30388,12.63,73480.3,-1.77,-27.99,-27.99,0,*51
1507154748.71,30389,12.63,73472.3,-1.81,-28.25,-28.21,0,*5D
1507154749.95,30390,12.63,73478.8,-1.77,-28.15,-28.15,0,*58
1507154751.19,30391,12.63,73490.5,-1.81,-28.37,-28.25,0,*53
1507154752.4,30392,12.63,73504.3,-1.81,-28.37,-28.37,0,*53
1507154753.68,30393,12.63,73516.3,-1.77,-27.99,-27.99,0,*5B
1507154754.95,30394,12.63,73520.3,-1.81,-28.05,-28.05,0,*55
1507154756.23,30395,12.69,73520.8,-1.77,-27.99,-28.09,0,*5B
1507154757.47,30396,12.63,73512.0,-1.77,-28.31,-28.31,0,*5E
1507154758.68,30397,12.63,73514.8,-1.81,-28.53,-28.53,0,*56
1507154759.97,30398,12.63,73522.5,-1.77,-28.59,-28.59,0,*50
1507154761.26,30399,12.63,73516.5,-1.77,-28.63,-28.63,0,*51
1507154762.52,30400,12.63,73514.0,-1.77,-28.69,-28.79,0,*57
1507154763.78,30401,12.63,73514.8,-1.77,-28.63,-28.69,0,*5D
1507154765.08,30402,12.63,73498.0,-1.77,-28.63,-28.63,0,*54
1507154766.31,30403,12.63,73514.0,-1.81,-28.75,-28.69,0,*51
1507154767.56,30404,12.63,73512.0,-1.81,-28.79,-28.75,0,*57
1507154768.81,30405,12.63,73512.0,-1.77,-28.69,-28.79,0,*52
1507154770.07,30406,12.63,73500.3,-1.81,-28.91,-28.91,0,*59
1507154771.28,30407,12.63,73506.8,-1.81,-28.97,-28.85,0,*5B
1507154772.54,30408,12.63,73496.5,-1.81,-28.91,-28.91,0,*57
1507154773.79,30409,12.63,73512.0,-1.81,-28.91,-28.79,0,*50
1507154775.05,30410,12.63,73512.0,-1.81,-28.79,-28.91,0,*58
1507154776.31,30411,12.69,73512.8,-1.81,-28.91,-28.91,0,*5F
1507154777.56,30412,12.69,73524.0,-1.85,-29.13,-29.01,0,*5B
1507154778.79,30413,12.63,73530.5,-1.83,-29.07,-28.97,0,*57
1507154780.03,30414,12.63,73528.3,-1.85,-28.91,-28.85,0,*5B
1507154781.26,30415,12.69,73518.3,-1.83,-28.69,-28.69,0,*59
1507154782.52,30416,12.63,73514.0,-1.85,-28.63,-28.63,0,*5C
1507154783.78,30417,12.69,73512.5,-1.83,-28.75,-28.69,0,*56
1507154785.04,30418,12.63,73510.0,-1.83,-28.75,-28.69,0,*59
1507154786.24,30419,12.63,73514.5,-1.85,-28.97,-28.85,0,*50
1507154787.45,30420,12.69,73526.3,-1.85,-28.85,-28.85,0,*59
1507154788.68,30421,12.69,73530.5,-1.85,-28.97,-28.79,0,*58
1507154789.89,30422,12.63,73532.3,-1.85,-28.85,-28.85,0,*5B
1507154791.1,30423,12.63,73538.3,-1.85,-28.85,-28.85,0,*5A
1507154792.35,30424,12.69,73514.5,-1.85,-28.79,-28.79,0,*5D
1507154793.58,30425,12.63,73508.5,-1.85,-28.59,-28.31,0,*52
1507154794.84,30426,12.69,73504.3,-1.85,-28.43,-28.25,0,*5F
1507154796.09,30427,12.69,73510.0,-1.87,-28.43,-28.31,0,*59
1507154797.35,30428,12.63,73506.8,-1.85,-28.59,-28.43,0,*5A
1507154798.61,30429,12.63,73518.3,-1.83,-28.53,-28.21,0,*53
1507154799.88,30430,12.69,73512.5,-1.83,-28.37,-28.09,0,*53
1507154801.14,30431,12.69,73500.5,-1.83,-28.37,-28.21,0,*58
1507154802.4,30432,12.63,73494.5,-1.83,-28.43,-28.37,0,*5F
1507154803.68,30433,12.63,73508.3,-1.83,-28.59,-28.43,0,*56
1507154804.94,30434,12.69,73510.3,-1.83,-28.59,-28.53,0,*50
1507154806.22,30435,12.69,73512.5,-1.83,-28.79,-28.75,0,*57
1507154807.44,30436,12.69,73518.8,-1.85,-28.97,-28.75,0,*52
1507154808.67,30437,12.63,73514.3,-1.85,-28.85,-28.79,0,*5C
1507154809.92,30438,12.63,73512.0,-1.85,-28.79,-28.75,0,*5C
1507154811.17,30439,12.63,73514.8,-1.85,-28.79,-28.75,0,*5D
1507154812.42,30440,12.63,73518.8,-1.85,-28.79,-28.75,0,*53
1507154813.65,30441,12.63,73530.3,-1.85,-28.79,-28.85,0,*5D
1507154814.91,30442,12.63,73534.0,-1.89,-29.01,-28.91,0,*59
1507154816.19,30443,12.69,73534.0,-1.87,-28.75,-28.47,0,*5F
1507154817.39,30444,12.63,73512.5,-1.89,-28.69,-28.53,0,*5E
1507154818.67,30445,12.69,73506.8,-1.87,-28.63,-28.43,0,*5A
1507154819.95,30446,12.63,73504.8,-1.87,-28.63,-28.47,0,*5D
1507154821.22,30447,12.63,73504.8,-1.87,-28.63,-28.47,0,*5C
1507154822.5,30448,12.63,73500.3,-1.87,-28.59,-28.43,0,*5E
1507154823.71,30449,12.63,73494.5,-1.89,-28.53,-28.37,0,*58
1507154824.96,30450,12.63,73482.8,-1.87,-28.47,-28.31,0,*5D
1507154826.24,30451,12.63,73474.3,-1.87,-28.59,-28.43,0,*56
1507154827.5,30452,12.63,73476.5,-1.89,-28.63,-28.47,0,*56
1507154828.77,30453,12.63,73482.3,-1.87,-28.63,-28.47,0,*59
1507154830.05,30454,12.63,73492.0,-1.87,-28.59,-28.43,0,*53
1507154831.33,30455,12.63,73478.5,-1.87,-28.63,-28.43,0,*5B
1507154832.56,30456,12.63,73480.0,-1.89,-28.69,-28.47,0,*58
1507154833.79,30457,12.69,73486.8,-1.89,-28.63,-28.53,0,*56
1507154835.06,30458,12.63,73486.8,-1.87,-28.63,-28.47,0,*52
1507154836.34,30459,12.69,73486.8,-1.87,-28.63,-28.47,0,*53
1507154837.6,30460,12.63,73466.5,-1.87,-28.59,-28.31,0,*51
1507154838.83,30461,12.69,73478.0,-1.89,-28.63,-28.37,0,*51
1507154840.08,30462,12.63,73468.8,-1.87,-28.47,-28.31,0,*5C
1507154841.32,30463,12.63,73462.0,-1.87,-28.31,-28.15,0,*5A
1507154842.6,30464,12.63,73472.3,-1.87,-28.25,-28.09,0,*55
1507154843.88,30465,12.69,73460.0,-1.87,-28.09,-27.99,0,*5C
1507154845.11,30466,12.63,73442.0,-1.87,-28.31,-28.15,0,*5F
1507154846.38,30467,12.69,73454.0,-1.87,-28.47,-28.43,0,*5C
1507154847.66,30468,12.63,73472.5,-1.87,-28.63,-28.43,0,*55
1507154848.89,30469,12.63,73490.5,-1.89,-28.63,-28.53,0,*5B
1507154850.17,30470,12.63,73494.5,-1.87,-28.63,-28.47,0,*58
1507154851.4,30471,12.63,73486.8,-1.89,-28.69,-28.47,0,*5D
1507154852.67,30472,12.63,73488.8,-1.87,-28.63,-28.47,0,*5A
1507154853.88,30473,12.63,73486.5,-1.89,-28.69,-28.53,0,*5A
1507154855.16,30474,12.63,73478.8,-1.87,-28.63,-28.43,0,*58
1507154856.42,30475,12.63,73490.3,-1.89,-28.63,-28.63,0,*55
1507154857.69,30476,12.63,73502.8,-1.87,-28.59,-28.47,0,*57
1507154858.9,30477,12.63,73502.3,-1.89,-28.53,-28.37,0,*55
1507154860.16,30478,12.63,73496.3,-1.89,-28.63,-28.47,0,*5E
1507154861.39,30479,12.69,73492.5,-1.89,-28.63,-28.53,0,*5A
1507154862.62,30480,12.63,73500.5,-1.89,-28.63,-28.53,0,*5C
1507154863.83,30481,12.63,73498.8,-1.89,-28.53,-28.37,0,*5C
1507154865.04,30482,12.63,73500.0,-1.89,-28.53,-28.37,0,*5F
1507154866.27,30483,12.63,73498.3,-1.89,-28.53,-28.47,0,*59
1507154867.5,30484,12.69,73490.0,-1.89,-28.53,-28.47,0,*5E
1507154868.71,30485,12.69,73486.3,-1.89,-28.53,-28.37,0,*58
1507154869.94,30486,12.63,73484.5,-1.91,-28.69,-28.53,0,*59
1507154871.22,30487,12.63,73492.0,-1.91,-28.59,-28.43,0,*5A
1507154872.48,30488,12.63,73506.5,-1.91,-28.53,-28.43,0,*5F
1507154873.71,30489,12.63,73508.0,-1.91,-28.53,-28.53,0,*5F
1507154874.98,30490,12.63,73506.5,-1.91,-28.37,-28.25,0,*54
1507154876.24,30491,12.63,73502.5,-1.91,-28.37,-28.25,0,*55
1507154877.48,30492,12.63,73484.0,-1.93,-28.37,-28.25,0,*54
1507154878.74,30493,12.63,73484.8,-1.91,-28.25,-28.37,0,*57
1507154879.97,30494,12.63,73480.0,-1.91,-28.53,-28.37,0,*51
1507154881.23,30495,12.69,73490.8,-1.91,-28.59,-28.53,0,*58
1507154882.44,30496,12.69,73498.5,-1.93,-28.53,-28.53,0,*53
1507154883.64,30497,12.63,73496.5,-1.93,-28.53,-28.37,0,*50
1507154884.9,30498,12.63,73504.5,-1.93,-28.59,-28.43,0,*56
1507154886.18,30499,12.63,73510.5,-1.91,-28.59,-28.43,0,*55
1507154887.43,30500,12.63,73516.3,-1.93,-28.59,-28.43,0,*56
1507154888.71,30501,12.63,73514.3,-1.91,-28.59,-28.43,0,*55
1507154889.97,30502,12.63,73498.3,-1.93,-28.43,-28.25,0,*5F
1507154891.21,30503,12.63,73494.8,-1.93,-28.37,-28.25,0,*5D
1507154892.41,30504,12.63,73482.8,-1.93,-28.53,-28.37,0,*5B
1507154893.68,30505,12.63,73498.5,-1.91,-28.53,-28.25,0,*5B
1507154894.93,30506,12.63,73508.3,-1.93,-28.59,-28.43,0,*50
1507154896.19,30507,12.69,73518.0,-1.93,-28.59,-28.43,0,*51
1507154897.44,30508,12.63,73508.0,-1.93,-28.59,-28.43,0,*5E
1507154898.67,30509,12.63,73504.5,-1.93,-28.53,-28.43,0,*55